Weather History for KATS - March, 2013

Change the Weather History Date:

Tuesday, March 5, 2013

  Actual Average Record
Temperature  
Mean Temperature 40 °F -  
Max Temperature 53 °F 62 °F 84 °F (2009)
Min Temperature 28 °F 26 °F 11 °F (1948)
Degree Days  
Heating Degree Days 24    
Moisture  
Dew Point 20 °F    
Average Humidity 42    
Maximum Humidity 64    
Minimum Humidity 24    
Precipitation  
Precipitation 0.00 in - - ()
Sea Level Pressure  
Sea Level Pressure 30.35 in    
Wind  
Wind Speed 13 mph (SSE)    
Max Wind Speed 30 mph    
Max Gust Speed 41 mph    
Visibility 10 miles    
Events Rain    
Averages and records for this station are not official NWS values.
T = Trace of Precipitation, MM = Missing Value Source: NWS Daily Summary

Daily Weather History Graph

Daily Weather History Graph

Search for Another Location

Airport or City:

Trip Planner

Search our weather history database for the weather conditions in past years. The results will help you decide how hot, cold, wet, or windy it might be!

Date:

Astronomy

Mar. 05, 2013 Rise Set
Actual Time 6:20 AM MST 5:58 PM MST
Civil Twilight 5:55 AM MST 6:23 PM MST
Nautical Twilight 5:27 AM MST 6:51 PM MST
Astronomical Twilight 4:58 AM MST 7:20 PM MST
Moon 1:21 AM MST (3/5) 11:53 AM MST (3/5)
Length of Visible Light 12h 27m
Length of Day
11h 37m
Last Quarter, 40% of the Moon is Illuminated
Mar 5
Last Quarter
Mar 11
New
Mar 19
First Quarter
Mar 27
Full
Apr 2
Last Quarter

Hourly Weather History & Observations

Time (MST) Temp. Windchill Dew Point Humidity Pressure Visibility Wind Dir Wind Speed Gust Speed Precip Events Conditions
12:15 AM 42.8 °F 32.3 °F 26.6 °F 53% 30.18 in 3.0 mi NNE 29.9 mph 41.4 mph N/A   Haze
12:35 AM 41.0 °F 30.5 °F 24.8 °F 53% 30.21 in 4.0 mi NNE 26.5 mph 38.0 mph N/A   Haze
12:55 AM 41.0 °F 31.1 °F 24.8 °F 53% 30.25 in 5.0 mi NNE 23.0 mph 29.9 mph N/A   Haze
1:15 AM 39.2 °F 30.2 °F 24.8 °F 56% 30.28 in 5.0 mi North 17.3 mph - N/A   Haze
1:35 AM 39.2 °F 31.6 °F 24.8 °F 56% 30.30 in 7.0 mi NNE 12.7 mph 28.8 mph N/A   Scattered Clouds
1:55 AM 39.2 °F 30.2 °F 23.0 °F 52% 30.31 in 7.0 mi North 17.3 mph - N/A   Clear
2:15 AM 37.4 °F 28.2 °F 21.2 °F 52% 30.34 in 8.0 mi North 16.1 mph 19.6 mph N/A   Clear
2:35 AM 37.4 °F 27.8 °F 21.2 °F 52% 30.34 in 10.0 mi North 17.3 mph 24.2 mph N/A   Clear
2:55 AM 37.4 °F 28.5 °F 21.2 °F 52% 30.35 in 10.0 mi North 15.0 mph - N/A   Clear
3:15 AM 35.6 °F 27.5 °F 21.2 °F 56% 30.35 in 10.0 mi North 11.5 mph - N/A   Clear
3:35 AM 35.6 °F 27.1 °F 21.2 °F 56% 30.36 in 10.0 mi North 12.7 mph - N/A   Clear
3:55 AM 35.6 °F 27.1 °F 21.2 °F 56% 30.37 in 10.0 mi North 12.7 mph - N/A   Clear
4:15 AM 33.8 °F 25.3 °F 21.2 °F 60% 30.38 in 10.0 mi North 11.5 mph - N/A   Clear
4:35 AM 33.8 °F 26.4 °F 21.2 °F 60% 30.39 in 10.0 mi North 9.2 mph - N/A   Clear
5:15 AM 32.0 °F 24.8 °F 21.2 °F 64% 30.40 in 10.0 mi NNW 8.1 mph - N/A   Clear
5:35 AM 32.0 °F 25.6 °F 19.4 °F 60% 30.41 in 10.0 mi NNW 6.9 mph - N/A   Clear
6:15 AM 30.2 °F 25.4 °F 19.4 °F 64% 30.43 in 10.0 mi WNW 4.6 mph - N/A   Clear
6:35 AM 28.4 °F 21.2 °F 17.6 °F 64% 30.44 in 10.0 mi WNW 6.9 mph - N/A   Clear
6:55 AM 32.0 °F 26.4 °F 19.4 °F 60% 30.45 in 10.0 mi West 5.8 mph - N/A   Clear
7:15 AM 32.0 °F 27.5 °F 19.4 °F 60% 30.45 in 10.0 mi NW 4.6 mph - N/A   Clear
7:35 AM 35.6 °F 32.8 °F 21.2 °F 56% 30.46 in 10.0 mi North 3.5 mph - N/A   Clear
7:55 AM 37.4 °F 33.8 °F 23.0 °F 56% 30.46 in 10.0 mi NNE 4.6 mph - N/A   Clear
8:15 AM 37.4 °F 32.8 °F 23.0 °F 56% 30.46 in 10.0 mi North 5.8 mph - N/A   Clear
8:35 AM 39.2 °F 35.9 °F 23.0 °F 52% 30.46 in 10.0 mi North 4.6 mph - N/A   Clear
8:55 AM 39.2 °F 35.9 °F 23.0 °F 52% 30.46 in 10.0 mi North 4.6 mph - N/A   Clear
9:15 AM 39.2 °F - 23.0 °F 52% 30.45 in 10.0 mi Calm Calm - N/A   Clear
9:35 AM 41.0 °F 39.0 °F 23.0 °F 49% 30.45 in 10.0 mi SSW 3.5 mph - N/A   Clear
9:55 AM 41.0 °F 37.1 °F 19.4 °F 42% 30.44 in 10.0 mi South 5.8 mph - N/A   Clear
10:15 AM 41.0 °F 39.0 °F 19.4 °F 42% 30.44 in 10.0 mi ENE 3.5 mph - N/A   Clear
10:35 AM 42.8 °F 40.1 °F 19.4 °F 39% 30.44 in 10.0 mi ESE 4.6 mph - N/A   Clear
10:55 AM 44.6 °F 39.7 °F 19.4 °F 37% 30.43 in 10.0 mi SSE 9.2 mph - N/A   Clear
11:15 AM 44.6 °F 42.2 °F 19.4 °F 37% 30.42 in 10.0 mi ESE 4.6 mph - N/A   Clear
11:35 AM 46.4 °F 42.9 °F 19.4 °F 34% 30.41 in 10.0 mi South 6.9 mph - N/A   Clear
11:55 AM 46.4 °F 44.3 °F 19.4 °F 34% 30.40 in 10.0 mi SSE 4.6 mph - N/A   Clear
12:15 PM 48.2 °F - 19.4 °F 32% 30.38 in 10.0 mi South 9.2 mph - N/A   Clear
12:35 PM 48.2 °F - 19.4 °F 32% 30.37 in 10.0 mi SE 12.7 mph 16.1 mph N/A   Clear
12:55 PM 48.2 °F - 21.2 °F 34% 30.36 in 10.0 mi SSE 8.1 mph - N/A   Clear
1:15 PM 50.0 °F - 19.4 °F 30% 30.35 in 10.0 mi South 10.4 mph 16.1 mph N/A   Clear
1:35 PM 50.0 °F - 19.4 °F 30% 30.34 in 10.0 mi SE 10.4 mph - N/A   Clear
1:55 PM 51.8 °F - 19.4 °F 28% 30.33 in 10.0 mi SSE 9.2 mph - N/A   Clear
2:15 PM 53.6 °F - 19.4 °F 26% 30.32 in 10.0 mi South 11.5 mph - N/A   Clear
2:35 PM 53.6 °F - 19.4 °F 26% 30.31 in 10.0 mi SSE 8.1 mph 19.6 mph N/A   Clear
2:55 PM 53.6 °F - 21.2 °F 28% 30.31 in 10.0 mi SSE 11.5 mph 18.4 mph N/A Rain Light Rain
3:15 PM 53.6 °F - 21.2 °F 28% 30.31 in 10.0 mi South 13.8 mph 20.7 mph N/A   Clear
3:35 PM 53.6 °F - 19.4 °F 26% 30.31 in 10.0 mi SSE 9.2 mph 17.3 mph N/A   Clear
3:55 PM 53.6 °F - 21.2 °F 28% 30.30 in 10.0 mi SSE 13.8 mph - N/A   Clear
4:15 PM 53.6 °F - 21.2 °F 28% 30.29 in 10.0 mi SSE 10.4 mph - N/A   Clear
4:35 PM 53.6 °F - 21.2 °F 28% 30.28 in 10.0 mi SE 12.7 mph - N/A   Clear
4:55 PM 53.6 °F - 19.4 °F 26% 30.27 in 10.0 mi SE 12.7 mph - N/A   Clear
5:15 PM 53.6 °F - 19.4 °F 26% 30.27 in 10.0 mi SE 13.8 mph - N/A   Clear
5:35 PM 53.6 °F - 17.6 °F 24% 30.27 in 10.0 mi SSE 13.8 mph - N/A   Clear
5:55 PM 50.0 °F - 17.6 °F 28% 30.27 in 10.0 mi SSE 12.7 mph - N/A   Clear
6:15 PM 50.0 °F - 17.6 °F 28% 30.28 in 10.0 mi South 11.5 mph - N/A   Clear
6:35 PM 48.2 °F - 17.6 °F 30% 30.29 in 10.0 mi South 9.2 mph - N/A   Clear
6:55 PM 46.4 °F 42.4 °F 17.6 °F 32% 30.29 in 10.0 mi South 8.1 mph - N/A   Clear
7:15 PM 44.6 °F 40.2 °F 15.8 °F 31% 30.30 in 10.0 mi SSW 8.1 mph - N/A   Clear
7:35 PM 42.8 °F 38.0 °F 15.8 °F 34% 30.30 in 10.0 mi SSW 8.1 mph - N/A   Clear
7:55 PM 42.8 °F 38.0 °F 15.8 °F 34% 30.31 in 10.0 mi South 8.1 mph - N/A   Clear
8:15 PM 41.0 °F 35.8 °F 15.8 °F 36% 30.31 in 10.0 mi South 8.1 mph - N/A   Clear
8:35 PM 41.0 °F 35.2 °F 15.8 °F 36% 30.31 in 10.0 mi South 9.2 mph - N/A   Clear
8:55 PM 41.0 °F 34.7 °F 15.8 °F 36% 30.31 in 10.0 mi South 10.4 mph - N/A   Clear
9:15 PM 41.0 °F 33.9 °F 15.8 °F 36% 30.31 in 10.0 mi South 12.7 mph - N/A   Clear
9:35 PM 41.0 °F 34.3 °F 15.8 °F 36% 30.31 in 10.0 mi South 11.5 mph - N/A   Clear
9:55 PM 41.0 °F 34.7 °F 15.8 °F 36% 30.30 in 10.0 mi South 10.4 mph - N/A   Clear
10:15 PM 41.0 °F 34.7 °F 17.6 °F 39% 30.31 in 10.0 mi South 10.4 mph - N/A   Clear
10:35 PM 41.0 °F 34.7 °F 17.6 °F 39% 30.31 in 10.0 mi South 10.4 mph - N/A   Clear
10:55 PM 37.4 °F 32.1 °F 15.8 °F 41% 30.31 in 10.0 mi SSW 6.9 mph - N/A   Clear
11:15 PM 35.6 °F 29.9 °F 15.8 °F 44% 30.31 in 10.0 mi SW 6.9 mph - N/A   Clear
11:35 PM 35.6 °F 29.9 °F 14.0 °F 41% 30.30 in 10.0 mi SSW 6.9 mph - N/A   Clear
11:55 PM 35.6 °F 32.8 °F 14.0 °F 41% 30.29 in 10.0 mi SSE 3.5 mph - N/A   Clear